Regional Weather Roundup
Issued by NWS Wakefield, VA

Home | Current Version | Previous Version | Text Only | Print | Product List | Glossary Off
Versions: 1 2 3 4 5 6 7 8 9 10 11 12 13 14 15 16 17 18 19 20 21 22 23 24 25 26 27 28 29 30 31 32 33 34 35 36 37 38 39 40 41 42 43 44 45 46 47 48 49 50

777
ASUS41 KAKQ 151515
RWRAKQ

REGIONAL WEATHER ROUNDUP
NATIONAL WEATHER SERVICE WAKEFIELD VA
1000 AM EST FRI DEC 15 2017

Note: "fair" indicates few or no clouds below 12,000 feet with no
significant weather and/or obstructions to visibility. * = Denotes
station may not report precipitation (e.g., rain,snow,etc.),
thunder or fog.

VAZ042-051-052>054-056-151600-
NORTHERN VIRGINIA

CITY           SKY/WX    TMP DP  RH WIND       PRES   REMARKS
WASH NATIONAL  CLOUDY    31  12  45 E3        30.10S
DULLES         CLOUDY    29  14  53 E7        30.07F
FORT BELVOIR   CLOUDY    30  11  45 CALM      30.09S
QUANTICO       CLOUDY    32  16  51 E3        30.10F
FREDERICKSBRG* CLOUDY    32  19  59 NE3       30.07S
STAFFORD*      CLOUDY    31  18  57 NE5       30.11S
WARRENTON      CLOUDY    31  14  48 CALM      30.06S
CULPEPER*      CLOUDY    31  15  50 CALM      30.07F
MANASSAS*      CLOUDY    30  16  56 SE5       30.08S
LEESBURG*      CLOUDY    30  19  64 CALM      30.08S
WINCHESTER     CLOUDY    28  14  54 CALM      30.03S
FRONT ROYAL*   CLOUDY    28  18  64 MISG      30.02S
LURAY*         CLOUDY    30  19  64 CALM      30.01S
$$

VAZ048-049-060>072-079>083-151600-
CENTRAL AND SOUTH CENTRAL VIRGINIA

CITY           SKY/WX    TMP DP  RH WIND       PRES   REMARKS
RICHMOND       CLOUDY    37  19  48 N9        30.03S
CHESTERFIELD*  NOT AVBL
PETERSBURG*    CLOUDY    36  18  48 N8        30.03S
HANOVER        CLOUDY    32  17  54 VRB3      30.06S
TAPPAHANNOCK*  CLOUDY    34  22  63 N7        30.06S
QUINTON*       PTSUNNY   33  19  54 N5        30.04R
CHARLOTTSVILLE CLOUDY    30  14  51 CALM      30.04S
GORDONSVILLE*  CLOUDY    30  16  56 NE3       30.05S
ORANGE*        CLOUDY    30  16  55 CALM      30.06S
LOUISA*        CLOUDY    29  17  59 N6        30.09S
BUMPASS*       CLOUDY    30  16  56 CALM      30.05S
FARMVILLE*     CLOUDY    32  21  64 N5        30.03S
CREWE*         CLOUDY    32  20  60 N5        30.02S
FORT PICKETT*  NOT AVBL
CHASE CITY*    CLOUDY    33  21  61 N6        30.01F
CLARKSVILLE*   CLOUDY    34  23  64 NE3       30.01F
SOUTH HILL*    PTSUNNY   33  21  62 NE3       30.07S
LAWRENCEVILLE* FAIR      34  20  56 N3        30.01S
EMPORIA*       PTSUNNY   34  23  64 NW6       30.03R
$$

VAZ088>098-151600-
SOUTHEAST VIRGINIA

CITY           SKY/WX    TMP DP  RH WIND       PRES   REMARKS
NORFOLK        CLOUDY    46  37  71 CALM      29.98F
VIRGINIA BEACH CLOUDY    48  38  68 E15       29.98F
NORFOLK NAVAL  CLOUDY    43  35  73 E13       30.01F
WEST POINT*    CLOUDY   N/A N/A N/A NE6       30.06R
SALUDA*        FAIR      37  28  71 NE7       30.03S
NEWPORT NEWS   MOSUNNY   40  32  73 NE9       30.01S
LANGLEY AFB    CLOUDY    40  33  77 NE12      30.00S
FORT EUSTIS    PTSUNNY   39  30  70 NE8       29.98S
WILLIAMSBURG*  CLOUDY    39  30  70 CALM      30.03R
HR EXEC AP*    FAIR      42  33  70 NE6       30.00F
FRANKLIN*      MOSUNNY   39  31  71 N6        30.01R
US460-WAKEFLD  CLOUDY    36  27  69 CALM      30.01R
$$

VAZ020-022-025-037-045-151600-
WEST CENTRAL AND SOUTHWEST VIRGINIA

CITY           SKY/WX    TMP DP  RH WIND       PRES   REMARKS
STAUNTON*      CLOUDY    29  16  58 S5        30.01S
WAYNESBORO*    CLOUDY    27  14  59 E3        29.98S
HOT SPRINGS VA CLOUDY    26  24  89 S6        29.84F
LYNCHBURG      CLOUDY    30  17  58 NE7       30.01S
DANVILLE       CLOUDY    33  21  61 E6        30.02F
SOUTH BOSTON*  CLOUDY    33  20  57 NE3       30.03S
MARTINSVILLE   CLOUDY    32  19  60 NE3       30.03F
ROANOKE        CLOUDY    31  17  56 S5        30.02S
BLACKSBURG     CLOUDY    29  22  76 E5        29.97F
DUBLIN*        CLOUDY    29  24  82 CALM      29.96F
MARION*        CLOUDY    28  24  83 CALM      29.96S
HILLSVILLE*    CLOUDY    28  24  86 CALM      29.91R
RICHLANDS*     CLOUDY    28  23  82 W8        29.94R
WISE*          CLOUDY    30  25  80 W6        29.96R
ABINGDON*      CLOUDY    31  28  92 W6        29.98R
$$

MDZ021>025-VAZ099-100-151600-
SOUTHERN MARYLAND AND THE DELMARVA PENINSULA

CITY           SKY/WX    TMP DP  RH WIND       PRES   REMARKS
PATUXENT RIVER CLOUDY    32  19  58 NE8       30.07R
BAY BRIDGE APT CLOUDY    28  12  50 MISG      30.10S
LEONARDTOWN    CLOUDY    32  19  59 NE6       30.08S
DOVER          CLOUDY    29  19  64 NE9       30.09F
GEORGETOWN     CLOUDY    34  22  61 NE10      30.07F
EASTON         MOSUNNY   30  14  51 E5        30.12S
CAMBRIDGE      CLOUDY    30  16  55 NE3       30.08S
SALISBURY      CLOUDY    33  23  66 NE9       30.06F
OCEAN CITY     CLOUDY    38  28  67 E9        30.06F
WALLOPS ISLAND CLOUDY    38  28  67 NE12      30.04F
ACCOMACK*      PTSUNNY   37  29  72 NE7       30.02S
$$

NCZ012>017-030>032-151600-
NORTH CENTRAL AND EASTERN NORTH CAROLINA

CITY           SKY/WX    TMP DP  RH WIND       PRES   REMARKS
ROANOKE RAPIDS FAIR      36  27  69 N5        30.01R
RALEIGH        CLOUDY    37  24  59 E6        30.01R
ELIZABETH CITY MOSUNNY   44  40  85 NW3       29.98F
AHOSKIE*       MOSUNNY   36  28  72 CALM      30.00R
EDENTON*       MOSUNNY   48  40  73 CALM      29.99S
CURRITUCK*     MOSUNNY   49  42  78 E6        29.98F
KILL DEVIL HLS PTSUNNY   53  45  73 E6        29.97R
MANTEO         PTSUNNY   54  46  72 E12       29.98R
CAPE HATTERAS  MOSUNNY   60  51  72 CALM      29.96S
TARBORO*       NOT AVBL
GOLDSBORO      MOSUNNY   43  33  68 CALM      29.98R
WASHINGTON     SUNNY     41  36  81 CALM      29.99S
GREENVILLE     SUNNY     41  32  70 CALM      30.01R
NEW BERN       SUNNY     49  44  83 CALM      29.99S
WILMINGTON     MOSUNNY   48  43  82 CALM      30.01R
$$

VAZ048-151600-
ELSEWHERE

CITY           SKY/WX    TMP DP  RH WIND       PRES   REMARKS
HARRISBURG PA  CLOUDY    25  14  63 CALM      30.07S
BALTIMORE      CLOUDY    29  13  51 E7        30.09S
ANNAPOLIS      CLOUDY    30  17  58 E7        30.09S
ANDREWS AFB    CLOUDY    29  13  50 CALM      30.07F
PHILADELPHIA   CLOUDY    27  10  49 SE6       30.12S
HENDERSON NC   CLOUDY    32  20  61 NE5       30.01S
GREENSBORO     CLOUDY    33  23  66 NE7       29.98F
ROCKY MOUNT    MOSUNNY   38  28  67 VRB3      30.01R
$$

VAZ100-151600-
MARINE

STATION/POSITION TIME  TEMP    WIND        PRES    WAVE   SWELL
                       AIR SEA DIR/SP/G            HT/PER HT/PER
                 (UTC) (F)     (DEG/KT/KT) (MB)    (FT/S) (FT/S)
BRANDYWINE LGT   1442   29      70/ 10/ 12 1019.4F
CAPE MAY NJ      1442   29 42   70/  5/  8 1018.6F
LEWES DE         1442   34 41  110/  8/ 10 1018.7F
15NM E FENWICK I 1450   39 52   50/  8/ 12 1018.6F   2/ 5   2/ 5
OCEAN-CITY-INLET 1442   38 45   90/  6/ 10 1018.4F
WACHAPREAGUE VA  1442   36 37   30/ 10/ 16 1016.3F
THOMAS POINT MD  1500   29 43   90/  6/  8   N/A
GOOSES REEF MD   1500   31 43   90/  8/ 10 1019.0    1/ 2
COVE POINT MD    1442   30      70/  7/ 10 1019.0R
SOLOMONS ISLAND  1442   31 45   30/  7/  9 1018.0R
BISHOPS HEAD MD  1442   31 36   30/  9/ 11 1018.1S
PINEY POINT MD   1442           70/  6/  8   N/A
POTOMAC MD       1500   35 46   60/ 12/ 14 1017.1    1/ 2
CAMBRIDGE MD     1442   30 39              1019.3R
LEWISETTA VA     1442   34 40   70/  8/ 11 1017.7R
RAPPAHANNOCK LGT 1442           40/ 12/ 13 1016.9F
STINGRAY PT      1500   38 45   70/ 14/ 16 1017.0    2/ 3
YORK RVR RNG VA  1442   38      60/ 16/ 19 1016.6F
YORKTOWN VA      1442   39 46   60/ 11/ 14 1016.0S
JAMESTOWN VA     1500      45   50/  6/ 10   N/A     0
DOMINION TERM VA 1442   40      50/  5/  8 1016.0F
KIPTOPEKE VA     1442      44   90/  6/ 10   N/A
CAPE HENRY VA    1442   47     100/ 16/ 20   N/A
WILLOUBY STN VA  1442           30/ 13/ 14 1015.6S
S CRANEY ISL VA  1442   40      50/  6/  7 1015.2F
CAPE HENRY BUOY  1500      53                N/A     3/ 4
1ST LANDING BUOY 1500   47 49  120/ 16/ 17 1015.6    2/ 3
CAPE CHARLES BUO 1451      51                N/A     3/ 5
64NM E OF VA BCH 1450   50 59   80/ 16/ 19 1015.8F   4/ 6   2/ 8
DUCK PIER NC     1442   52 52   90/ 15/ 18 1014.5F
44100 DUCK FRF   1445      54                N/A     4/ 4
44056 DUCK FRF   1500      55                N/A     4/ 4
OREGON INLET NC  1442   55 45   60/ 10/ 13 1014.7F
HATTERAS NC      1442   55 53   80/  5/  6 1014.5S
DIAMOND SHLS NC  1500   64 74  210/ 16/ 19 1015.0
CAPE LOOKOUT NC  1500          230/  6/  9 1015.7R
$$




USA.gov is the U.S. government's official web portal to all federal, state and local government web resources and services.